Tracking 28911 objects as of 22-May-2024
HD Live streaming from Space Station
objects crossing your sky now

ONEWEB-0217

Track ONEWEB-0217 now!
10-day predictions
ONEWEB-0217 is classified as:


NORAD ID: 48245
Int'l Code: 2021-031AM
Perigee: 1,211.1 km
Apogee: 1,214.7 km
Inclination: 87.9 °
Period: 109.5 minutes
Semi major axis: 7583 km
RCS: Unknown
Launch date: April 25, 2021
Source: United Kingdom (UK)
Launch site: VOSTOCHNY COSMODROME (VOSTO)
Your satellite tracking list
Your tracking list is empty




NASA's NSSDC Master Catalog

Two Line Element Set (TLE):
1 48245U 21031AM  24142.90914782  .00000112  00000-0  26800-3 0  9996
2 48245  87.8961  80.1580 0002402  79.4633 280.6767 13.14506407148826
Source of the keplerian elements: AFSPC